Regional Weather Roundup
Issued by NWS Charleston, WV

Home | Current Version | Previous Version | Graphics & Text | Print | Product List | Glossary On
Versions: 1 2 3 4 5 6 7 8 9 10 11 12 13 14 15 16 17 18 19 20 21 22 23 24 25 26 27 28 29 30 31 32 33 34 35 36 37 38 39 40 41 42 43 44 45 46 47 48 49 50
000
ASUS41 KRLX 110510
RWRRLX
West Virginia Regional Weather Roundup
National Weather Service Charleston WV
100 AM EDT FRI JUL 11 2014

Note: "fair" indicates few or no clouds below 12,000 feet with no
significant weather and/or obstructions to visibility.

WVZ003-110600-
Northern Panhandle of West Virginia

CITY           SKY/WX    TMP DP  RH WIND       PRES   REMARKS
WHEELING       MOCLDY    64  58  80 NE6       30.16R
$$

WVZ009-110600-
Northwest West Virginia

CITY           SKY/WX    TMP DP  RH WIND       PRES   REMARKS
PARKERSBURG    CLEAR     64  62  93 CALM      30.17S
$$

WVZ006-110600-
Western West Virginia

CITY           SKY/WX    TMP DP  RH WIND       PRES   REMARKS
HUNTINGTON     CLEAR     66  63  90 CALM      30.14F
$$

WVZ015-110600-
West Central West Virginia

CITY           SKY/WX    TMP DP  RH WIND       PRES   REMARKS
CHARLESTON     PTCLDY    66  66 100 CALM      30.14F FOG
$$

WVZ031-110600-
North Central West Virginia

CITY           SKY/WX    TMP DP  RH WIND       PRES   REMARKS
CLARKSBURG     CLEAR     64  61  90 CALM      30.15S
MORGANTOWN     CLEAR     66  62  87 CALM      30.17R
$$

WVZ035-042-045-110600-
South Central West Virginia

CITY           SKY/WX    TMP DP  RH WIND       PRES   REMARKS
BECKLEY        CLEAR     63  59  87 CALM      30.22S
BLUEFIELD      CLEAR     66  58  75 W5        30.24S
LEWISBURG      CLEAR     64  58  83 CALM      30.21F
$$

WVZ047-110600-
Northern Mountains of West Virginia

CITY           SKY/WX    TMP DP  RH WIND       PRES   REMARKS
ELKINS         CLEAR     59  57  93 CALM      30.21R FOG
$$

WVZ052-110600-
Eastern Panhandle of West Virginia

CITY           SKY/WX    TMP DP  RH WIND       PRES   REMARKS
MARTINSBURG    MOCLDY    69  63  81 NW3       30.15F
PETERSBURG     CLOUDY    64  60  87 NW3       30.19S FOG
$$



USA.gov is the U.S. government's official web portal to all federal, state and local government web resources and services.